Regional Weather Roundup
Issued by NWS Mt. Holly, NJ

Home | Current Version | Previous Version | Text Only | Print | Product List | Glossary On
Versions: 1 2 3 4 5 6 7 8 9 10 11 12 13 14 15 16 17 18 19 20 21 22 23 24 25 26 27 28 29 30 31 32 33 34 35 36 37 38 39 40 41 42 43 44 45 46 47
000
ASUS41 KPHI 281112
RWRPHI

REGIONAL WEATHER ROUNDUP
NATIONAL WEATHER SERVICE MOUNT HOLLY NJ
600 AM EST TUE JAN 28 2020

NOTE:  "FAIR" INDICATES FEW OR NO CLOUDS BELOW 12,000 FEET WITH NO
SIGNIFICANT WEATHER AND/OR OBSTRUCTIONS TO VISIBILITY.

 * = STATION DOES NOT REPORT PRECIPITATION (E.G. RAIN, SNOW, ETC.)
        OR FOG.

NJZ015>026-281200-
SOUTHERN NEW JERSEY

CITY           SKY/WX    TMP DP  RH WIND       PRES   REMARKS
POMONA           N/A     38  28  67 NW7       29.81R WCI  33
WILDWOOD*      CLOUDY    39  31  72 NW9       29.84R WCI  33
MILLVILLE      CLOUDY    39  28  64 NW8       29.83R WCI  33
WRIGHTSTOWN    FAIR      35  27  73 NW7       29.81R WCI  29
MOUNT HOLLY    FAIR      37  28  70 VRB6      29.82R WCI  32
TRENTON        FAIR      34  26  72 NW5       29.80S WCI  30

$$
NJZ001>014-281200-
NORTHERN NEW JERSEY

CITY           SKY/WX    TMP DP  RH WIND       PRES   REMARKS
SUSSEX         FAIR      35  25  66 VRB5      29.76S WCI  31
ANDOVER*         N/A     34  25  69 VRB3      29.77S
MORRISTOWN     MOCLDY    36  27  69 W8G16     29.78S WCI  29
NEWARK         CLOUDY    38  26  62 W12G22    29.78R WCI  30
TETERBORO      CLOUDY    38  33  82 NW12G20   29.76R WCI  30
CALDWELL       CLOUDY    38  25  59 NW7       29.79R WCI  33
SOMERVILLE     CLOUDY    37  25  61 VRB5      29.79R WCI  33
ALLAIRE*       CLOUDY    36  26  67 W10       29.79R WCI  28
TOMS RIVER*    CLOUDY    37  28  70 NW9       29.81R WCI  30

$$
PAZ043-044-047-054-055-060>062-066>071-281200-
EASTERN PENNSYLVANIA

CITY           SKY/WX    TMP DP  RH WIND       PRES   REMARKS
PHILADELPHIA   CLOUDY    39  27  62 NW12G17   29.84R WCI  32
NORTH PHILA    MOCLDY    38  28  67 NW8       29.84R WCI  32
BLUE BELL*     CLOUDY    37  29  75 NW3       29.83R
DOYLESTOWN     MOCLDY    36  28  73 W7        29.80R WCI  30
QUAKERTOWN*    CLOUDY    36  30  80 CALM      29.81
PERKASIE*      CLOUDY    36  30  80 NW5       29.82R WCI  32
POTTSTOWN      CLOUDY    34  30  85 W7        29.84R WCI  28
LANCASTER      CLOUDY    38  27  64 NW10      29.84R WCI  31
COATESVILLE    CLOUDY    36  30  80 NW9       29.84R WCI  29
WEST CHESTER   CLOUDY    36  32  87 W7        29.83R WCI  30
READING        CLOUDY    37  30  75 NW10      29.83R WCI  30
ALLENTOWN      CLOUDY    37  28  70 W5        29.81R WCI  33
QN CITY/ALNTWN CLOUDY    36  32  87 W5        29.83R WCI  32
MOUNT POCONO   LGT SNOW  28  25  88 NW13      29.72R FOG     WCI  17
HAZLETON       CLOUDY    32  28  86 W10       29.80R WCI  24
WILKES BARRE   CLOUDY    34  26  72 NW13      29.80R WCI  25

$$
DEZALL-MDZ008-012-015-019-020-281200-
DELAWARE AND EASTERN MARYLAND

CITY           SKY/WX    TMP DP  RH WIND       PRES   REMARKS
WILMINGTON     CLOUDY    39  28  64 NW10      29.85R WCI  32
DOVER          CLOUDY    39  28  65 W8        29.84R WCI  34
CHESWOLD       CLOUDY    39  28  65 VRB7      29.85R WCI  34
GEORGETOWN     CLOUDY    40  29  64 NW6       29.85R
EASTON         CLOUDY    39  30  70 NW8       29.90R WCI  34
STEVENSVILLE   CLOUDY    39  30  70 NW12      29.88R WCI  32
ABERDEEN       MOCLDY    38  28  68 NW3       29.88R
PATUXENT       CLOUDY    41  31  67 NW9       29.88
OCEAN CITY     FAIR      36  29  75 NW5       29.85R WCI  32
WALLOPS ISLAND FAIR      37  29  72 NW7       29.86R WCI  32
CAMBRIDGE      CLOUDY    41  30  65 NW8G15    29.86S
SALISBURY      MOCLDY    38  28  67 NW8       29.85R WCI  32

$$
PAZ001-021-NYZ056-072-MDZ011-DCZ001-281200-
OTHER NEARBY LOCATIONS

CITY           SKY/WX    TMP DP  RH WIND       PRES   REMARKS
HARRISBURG     CLOUDY    38  28  67 NW8       29.85R WCI  32
STATE COLLEGE  CLOUDY    34  27  75 NW12      29.85  WCI  25
WILLIAMSPORT   CLOUDY    36  23  59 NW15      29.85R WCI  27
BINGHAMTON     CLOUDY    28  25  88 NW8       29.75S WCI  20
NEW YORK CITY  CLOUDY    38  25  59 W8        29.79R WCI  32
BALTIMORE      CLOUDY    40  27  59 NW10      29.87R WCI  33
WASHINGTON DC  CLOUDY    41  29  62 NW12      29.90R

$$



USA.gov is the U.S. government's official web portal to all federal, state and local government web resources and services.